Regional Weather Roundup
Issued by NWS Huntsville, AL

Home | Current Version | Previous Version | Text Only | Print | Product List | Glossary On
Versions: 1 2 3 4 5 6 7 8 9 10 11 12 13 14 15 16 17 18 19 20 21 22 23 24 25 26 27
000
ASUS44 KHUN 230910
RWRHUN

WEATHER ROUNDUP FOR THE TENNESSEE VALLEY
NATIONAL WEATHER SERVICE HUNTSVILLE AL
400 AM CDT SUN JUL 23 2017

ALZ001>004-231000-
NORTHWEST ALABAMA

CITY           SKY/WX    TMP DP  RH WIND       PRES   REMARKS
COURTLAND HCN    N/A     75 N/A N/A CALM        N/A
RUSSELLVILLE     N/A     75 N/A N/A MISG        N/A
SHOALS AIRPORT CLEAR     74  70  87 CALM      29.92S
SHOALS TVA RES   N/A     73 N/A N/A MISG        N/A
$$

ALZ005>007-016-231000-
NORTH CENTRAL ALABAMA

CITY           SKY/WX    TMP DP  RH WIND       PRES   REMARKS
CULLMAN AG STN   N/A     73 N/A N/A CALM        N/A
DECATUR AP     CLEAR     75  74  96 CALM      29.92S
HUNTSVILLE AP  CLEAR     77  76  96 CALM      29.92S
MERIDIANVILLE  CLEAR     73  72  94 CALM      29.92F FOG
REDSTONE ARSN  CLEAR     76  74  95 CALM      29.91F
VINEMONT AP    FAIR      73  73  97 CALM      29.96F
$$

ALZ008>010-231000-
NORTHEAST ALABAMA

CITY           SKY/WX    TMP DP  RH WIND       PRES   REMARKS
ALBERTVILLE    CLEAR     73  73 100 S3        29.94F
FORT PAYNE     CLEAR     72  70  94 CALM      29.94S
SCOTTSBORO AP  PTCLDY    75  75 100 CALM      29.93S
SCOTTSBORO HCN   N/A     73 N/A N/A MISG        N/A
VALLEY HEAD      N/A     72 N/A N/A MISG        N/A
$$

TNZ076-096-097-231000-
SOUTHEASTERN MIDDLE TENNESSEE

CITY           SKY/WX    TMP DP  RH WIND       PRES   REMARKS
TULLAHOMA      CLEAR     73  72  94 CALM      29.95R
WINCHESTER     CLEAR     73  72  94 CALM      29.94R
$$

...SURROUNDING SITES...

CITY           SKY/WX    TMP DP  RH WIND       PRES   REMARKS
ATLANTA        PTCLDY    75  73  93 W6        29.96S
ANNISTON       PTCLDY    72  71  97 CALM      29.95S
BIRMINGHAM     CLEAR     79  73  82 SW5       29.96S
CHATTANOOGA    PTCLDY    79  74  84 CALM      29.92F
CORINTH          N/A    N/A N/A N/A MISG        N/A
DALTON         NOT AVBL
GADSDEN        CLEAR     73  73 100 CALM      29.94S FOG
GOLDEN TRNGL   CLEAR     73  66  78 E5        29.89S
JACKSON TN     CLEAR     78  75  90 SW8       29.88S
MEMPHIS        CLEAR     78  74  87 SW3       29.89S
NASHVILLE      CLEAR     80  71  74 SW3       29.90R
OXFORD MS      FAIR      73  72  94 CALM      29.94R
ROME           CLEAR     76  75  97 SW3       29.92F
SAVANNAH       CLEAR     72  70  94 CALM      29.89F
SELMER         CLEAR     73  72  94 SW6       29.90S
TUPELO         CLEAR     75  72  90 CALM      29.91S
TUSCALOOSA     CLEAR     76  76 100 S5        29.93S
$$

...GULF COAST WEATHER...

CITY           SKY/WX    TMP DP  RH WIND       PRES   REMARKS
GULFPORT       CLEAR     75  74  96 NW3       29.95F
PASCAGOULA     CLEAR     74  72  93 CALM      29.96R
MOBILE         CLEAR     75  73  93 W3        29.97R
GULF SHORES    CLOUDY    79  78  96 W8        29.95R
PENSACOLA      LGT RAIN  78  74  87 W5        29.94S
DESTIN         PTCLDY    86  73  65 VRB6      29.94S HX  93
PANAMA CITY    MOCLDY    82  75  78 SW8       29.96R
APPALACHICOLA  CLEAR     81  77  88 SW6       29.96S
$$





USA.gov is the U.S. government's official web portal to all federal, state and local government web resources and services.